[[{"header":{"parameterUnit":"m.s-1","parameterCategory":1,"la1":30.2991,"la2":30.254,"lo1":-89.0895,"lo2":-89.0444,"dy":0.0017,"dx":0.0017,"nx":28,"ny":28,"refTime":"2024-03-05T09:00:00:Z","depth":0,"parameterNumber":2,"parameterNumberName":"U-component_of_WINDS"},"data":[0,0,0,0,0,0,0,0,0,0,0,0,0,0,0,0,0,0,0,0,0,0,0,0,0,0,0,0,0,0,0,0,0,0,0,0,0,0,0,0,0,0,0,0,0,0,0,0,0,0,0,0,0,0,0,0,0,0,-4.2986,-4.2987,0,-4.3051,-4.3051,-4.3052,-4.301,-4.3008,-4.3006,-4.3004,-4.3069,-4.3072,-4.3075,0,0,0,0,0,0,0,0,0,0,0,0,0,-4.2826,-4.2829,-4.2986,-4.2987,-4.2988,-4.305,-4.3051,-4.3052,-4.301,-4.3008,-4.3006,-4.3003,-4.3067,-4.3072,-4.3076,0,0,0,0,0,0,0,0,0,0,0,0,0,-4.2894,-4.2831,-4.2986,-4.2974,-4.2974,-4.305,-4.3051,-4.3052,-4.3011,-4.3008,-4.3005,-4.3002,-4.3066,-4.3071,-4.3076,-4.3167,0,0,-4.3092,-4.3095,0,0,0,0,0,0,0,0,-4.289,-4.29,-4.2975,-4.2975,-4.2975,-4.3019,-4.3018,-4.3091,-4.3012,-4.2997,-4.3004,-4.3001,-4.3054,-4.306,-4.3079,-4.317,-4.3173,-4.3093,-4.3096,-4.3098,-4.31,0,0,0,0,0,0,0,-4.2885,-4.2897,-4.3011,-4.2976,-4.2976,-4.2966,-4.2972,-4.3032,-4.3041,-4.2998,-4.2995,-4.3003,-4.3054,-4.3074,-4.308,-4.3174,-4.3093,-4.3097,-4.3101,-4.3103,-4.3343,-4.3346,0,0,0,0,0,0,-4.2882,-4.2893,-4.3009,-4.3013,-4.2925,-4.2971,-4.2978,-4.3008,-4.304,-4.3042,-4.3006,-4.3001,-4.3066,-4.3074,-4.3082,-4.319,-4.3098,-4.3103,-4.3106,-4.334,-4.3344,-4.3347,0,0,0,0,0,0,-4.2878,-4.2893,-4.3007,-4.2953,-4.2966,-4.2977,-4.3011,-4.3011,-4.3031,-4.3046,-4.3047,-4.3025,-4.3064,-4.3075,-4.3146,-4.3191,-4.3106,-4.311,-4.3336,-4.3341,-4.3345,-4.3406,0,0,0,0,0,0,-4.2874,-4.2892,-4.2926,-4.2954,-4.2969,-4.307,-4.3014,-4.3014,-4.304,-4.3035,-4.3064,-4.3066,-4.3063,-4.3139,-4.3152,-4.3197,-4.3115,-4.3332,-4.3338,-4.3344,-4.34,-4.3412,-4.3423,0,0,0,0,0,-4.2869,-4.294,-4.2928,-4.2942,-4.3012,-4.3073,-4.3082,-4.3077,-4.3044,-4.3078,-4.3089,-4.3065,-4.3185,-4.3146,-4.3161,-4.3208,-4.3329,-4.3336,-4.3343,-4.3395,-4.341,-4.3423,0,0,0,0,0,0,-4.2915,-4.2943,-4.293,-4.3012,-4.3041,-4.3065,-4.3108,-4.3093,-4.313,-4.3123,-4.3115,-4.3123,-4.3197,-4.321,-4.3167,-4.3298,-4.3252,-4.3262,-4.3286,-4.3301,-4.3312,-4.3306,-4.3119,0,0,0,0,0,-4.2936,-4.2983,-4.3004,-4.3075,-4.309,-4.3097,-4.3123,-4.3118,-4.3146,-4.3157,-4.3173,-4.3201,-4.3245,-4.3274,-4.3316,-4.3403,-4.3408,-4.3443,-4.3455,-4.3464,-4.3472,-4.3519,-4.3534,-4.3371,-4.3371,-4.3371,0,0,-4.2977,-4.2998,-4.3028,-4.3085,-4.3106,-4.3155,-4.3107,-4.316,-4.3196,-4.3165,-4.3233,-4.3247,-4.3278,-4.3358,-4.3394,-4.3371,-4.3519,-4.3473,-4.348,-4.3483,-4.3528,-4.3544,-4.3557,-4.3376,-4.3375,-4.3374,0,0,-4.3077,-4.3099,-4.3159,-4.3183,-4.3216,-4.3221,-4.3236,-4.3264,-4.3271,-4.3341,-4.3318,-4.3362,-4.3438,-4.3461,-4.3482,-4.3595,-4.3575,-4.3609,-4.3668,-4.3714,-4.3727,-4.3738,-4.3777,-4.3791,-4.3618,-4.3618,-4.3618,0,-4.3124,-4.3196,-4.3193,-4.3248,-4.3274,-4.325,-4.3312,-4.3334,-4.3379,-4.3397,-4.3372,-4.3468,-4.3487,-4.3572,-4.36,-4.3619,-4.3636,-4.3604,-4.3725,-4.3737,-4.3747,-4.3784,-4.3799,-4.3622,-4.3622,-4.3621,-4.3621,0,-4.3252,-4.3303,-4.3349,-4.3394,-4.3425,-4.3483,-4.3488,-4.3521,-4.3514,-4.3521,-4.3592,-4.3616,-4.3661,-4.3682,-4.3675,-4.3767,-4.3751,-4.3726,-4.3679,-4.3766,-4.3801,-4.3815,-4.3627,-4.3626,-4.3625,-4.3624,0,0,-4.3379,-4.3424,-4.344,-4.3461,-4.3498,-4.3537,-4.3595,-4.3641,-4.3668,-4.3702,-4.3749,-4.3816,-4.3793,-4.3818,-4.3814,-4.3855,-4.3942,-4.3825,-4.3826,-4.3844,-4.4044,-4.406,-4.4077,-4.393,-4.3933,-4.3935,-4.404,0,-4.3479,-4.358,-4.358,-4.3673,-4.372,-4.3701,-4.3752,-4.378,-4.379,-4.3831,-4.3842,-4.3889,-4.3856,-4.3871,-4.3911,-4.3923,-4.3981,-4.3916,-4.3973,-4.3975,-4.3963,-4.4095,-4.4112,-4.421,-4.4054,-4.4056,-4.4058,0,-4.3609,-4.3647,-4.3745,-4.3777,-4.3796,-4.3842,-4.3885,-4.3925,-4.3957,-4.3962,-4.3991,-4.3982,-4.4041,-4.3995,-4.4076,-4.4032,-4.4056,-4.4066,-4.407,-4.4072,-4.4019,-4.4098,-4.4241,-4.4255,-4.4079,-4.4078,-4.4076,0,-4.3689,-4.3766,-4.3834,-4.3853,-4.3892,-4.3924,-4.3942,-4.3972,-4.4,-4.4038,-4.4056,-4.4101,-4.4124,-4.4159,-4.4161,-4.4128,-4.4243,-4.4198,-4.4247,-4.4247,-4.4269,-4.4267,-4.4415,-4.429,-4.429,-4.4289,-4.4289,0,-4.3799,-4.3859,-4.3871,-4.3913,-4.398,-4.3981,-4.4048,-4.4063,-4.409,-4.4134,-4.4121,-4.4163,-4.4166,-4.4209,-4.4212,-4.4278,-4.429,-4.4294,-4.4294,-4.4294,-4.4293,-4.4307,-4.4299,-4.4293,-4.4293,-4.4292,-4.4291,0,-4.3898,-4.3909,-4.3982,-4.4014,-4.4024,-4.4072,-4.4099,-4.4139,-4.415,-4.4206,-4.422,-4.4235,-4.4286,-4.4293,-4.4352,-4.4354,-4.4433,-4.4427,-4.4422,-4.442,-4.4469,-4.4463,-4.4628,-4.4649,-4.4513,-4.4515,-4.4516,0,-4.3966,-4.4012,-4.405,-4.4079,-4.4099,-4.4147,-4.4176,-4.418,-4.4211,-4.4253,-4.4288,-4.4337,-4.4376,-4.4458,-4.4475,-4.452,-4.4513,-4.4568,-4.4519,-4.4518,-4.4511,-4.4507,-4.4511,-4.4576,-4.4578,-4.4579,-4.458,0,-4.4084,-4.4088,-4.4131,-4.4177,-4.4213,-4.4249,-4.4283,-4.4308,-4.4316,-4.4352,-4.4404,-4.4435,-4.4496,-4.4545,-4.4591,-4.4609,-4.4595,-4.4596,-4.4609,-4.4608,-4.4602,-4.4604,-4.4445,-4.4591,-4.459,-4.4589,-4.4588,-4.4588,-4.4168,-4.4208,-4.4242,-4.4291,-4.4318,-4.435,-4.439,-4.4406,-4.445,-4.45,-4.4501,-4.4558,-4.4591,-4.4651,-4.4672,-4.4717,-4.4699,-4.4719,-4.4723,-4.4727,-4.4731,-4.4598,-4.4726,-4.4725,-4.4725,-4.4725,-4.4725,0,-4.4284,-4.4306,-4.4351,-4.44,-4.4439,-4.4426,-4.4463,-4.4496,-4.4547,-4.4579,-4.4619,-4.468,-4.4728,-4.475,-4.4798,-4.4829,-4.4824,-4.4841,-4.4837,-4.4841,-4.4745,-4.4728,-4.4845,-4.4845,-4.4844,-4.4844,-4.4844,-4.4844,-4.4348,-4.4416,-4.4424,-4.4505,-4.4526,-4.4583,-4.4605,-4.4636,-4.4662,-4.473,-4.4771,-4.4785,-4.4814,-4.4864,-4.4908,-4.4913,-4.493,-4.4949,-4.4952,-4.4861,-4.4848,-4.4837,-4.482,-4.4954,-4.4954,-4.5044,-4.5044,-4.5045]},{"header":{"parameterUnit":"m.s-1","parameterCategory":1,"la1":30.2991,"la2":30.254,"lo1":-89.0895,"lo2":-89.0444,"dy":0.0017,"dx":0.0017,"nx":28,"ny":28,"refTime":"2024-03-05T09:00:00:Z","depth":0,"parameterNumber":3,"parameterNumberName":"V-component_of_WINDS"},"data":[0,0,0,0,0,0,0,0,0,0,0,0,0,0,0,0,0,0,0,0,0,0,0,0,0,0,0,0,0,0,0,0,0,0,0,0,0,0,0,0,0,0,0,0,0,0,0,0,0,0,0,0,0,0,0,0,0,0,1.9037,1.9037,0,1.9021,1.9021,1.9021,1.8986,1.8985,1.8984,1.8984,1.8964,1.8965,1.8965,0,0,0,0,0,0,0,0,0,0,0,0,0,1.9038,1.9038,1.9037,1.9037,1.9037,1.9021,1.9021,1.9021,1.8986,1.8985,1.8984,1.8983,1.8964,1.8965,1.8965,0,0,0,0,0,0,0,0,0,0,0,0,0,1.9031,1.9038,1.9037,1.9018,1.9016,1.9021,1.9021,1.9021,1.8986,1.8985,1.8984,1.8983,1.8964,1.8965,1.8965,1.8987,0,0,1.8965,1.8966,0,0,0,0,0,0,0,0,1.9032,1.9031,1.9021,1.9019,1.9017,1.9005,1.9014,1.9009,1.8986,1.8997,1.8984,1.8983,1.8978,1.8977,1.8977,1.8986,1.8985,1.8965,1.8966,1.8966,1.8966,0,0,0,0,0,0,0,1.9032,1.9032,1.9031,1.9021,1.9018,1.901,1.9008,1.9013,1.8994,1.8996,1.8994,1.8992,1.8977,1.8977,1.8976,1.8985,1.8965,1.8966,1.8966,1.8966,1.9016,1.9017,0,0,0,0,0,0,1.9036,1.9032,1.9031,1.903,1.9022,1.9011,1.9008,1.901,1.8994,1.899,1.8993,1.8991,1.8977,1.8976,1.8975,1.9002,1.8966,1.8966,1.8966,1.9015,1.9016,1.9018,0,0,0,0,0,0,1.9036,1.9036,1.9032,1.9031,1.903,1.9012,1.9013,1.901,1.9009,1.8992,1.8988,1.8996,1.8976,1.8975,1.8985,1.9001,1.8966,1.8966,1.9013,1.9015,1.9017,1.9056,0,0,0,0,0,0,1.9036,1.9036,1.9044,1.9031,1.903,1.9043,1.9014,1.901,1.901,1.9006,1.8993,1.899,1.8975,1.8985,1.8986,1.9001,1.8966,1.9012,1.9014,1.9016,1.9053,1.9059,1.9064,0,0,0,0,0,1.9036,1.9054,1.9045,1.9045,1.904,1.9044,1.9043,1.9026,1.9011,1.9019,1.9009,1.899,1.9,1.8987,1.8987,1.9002,1.9011,1.9014,1.9016,1.9051,1.9058,1.9064,0,0,0,0,0,0,1.9067,1.9052,1.9041,1.9056,1.9052,1.9038,1.9047,1.9033,1.9032,1.9028,1.9007,1.9004,1.9018,1.9011,1.8997,1.9025,1.9003,1.9005,1.9029,1.9035,1.904,1.9042,1.8966,0,0,0,0,0,1.9076,1.9081,1.9067,1.9082,1.9081,1.9065,1.9066,1.9053,1.9048,1.9045,1.9035,1.903,1.9032,1.9033,1.9033,1.9053,1.905,1.9063,1.9069,1.9073,1.9076,1.9088,1.9094,1.9027,1.9027,1.9026,0,0,1.9094,1.9086,1.909,1.9088,1.9083,1.9089,1.9063,1.9069,1.9074,1.9046,1.9056,1.9049,1.9041,1.9057,1.9064,1.9052,1.9094,1.9077,1.908,1.908,1.9091,1.9098,1.9103,1.9028,1.9028,1.9028,0,0,1.913,1.9124,1.9137,1.9133,1.9128,1.9118,1.9121,1.911,1.9105,1.9115,1.9095,1.91,1.9103,1.91,1.9098,1.9138,1.9122,1.9139,1.9166,1.9178,1.9183,1.9188,1.9204,1.9209,1.9142,1.9142,1.9142,0,1.9152,1.916,1.9144,1.9154,1.9154,1.9132,1.9145,1.9142,1.9136,1.9137,1.9125,1.9131,1.9124,1.914,1.915,1.9149,1.9153,1.9139,1.9184,1.9189,1.9193,1.9207,1.9213,1.9144,1.9144,1.9143,1.9143,0,1.9189,1.9196,1.9207,1.9205,1.9206,1.9217,1.9204,1.9207,1.9196,1.9188,1.92,1.9192,1.9192,1.9195,1.9183,1.9211,1.9204,1.9188,1.9165,1.9202,1.9215,1.922,1.9147,1.9146,1.9146,1.9145,0,0,1.9241,1.9233,1.9237,1.9237,1.9231,1.9236,1.9247,1.9249,1.9253,1.9251,1.9261,1.9266,1.9253,1.9252,1.9239,1.925,1.9285,1.9233,1.9233,1.9244,1.9316,1.9328,1.9335,1.9274,1.9275,1.9276,1.9317,0,1.9275,1.9294,1.9282,1.9304,1.9311,1.9292,1.9302,1.9299,1.9293,1.9298,1.9291,1.9296,1.9277,1.9277,1.9286,1.9278,1.9299,1.9275,1.9283,1.9284,1.9286,1.9342,1.9354,1.9393,1.9322,1.9323,1.9324,0,1.9317,1.9319,1.9342,1.9338,1.9341,1.935,1.9352,1.9358,1.9356,1.935,1.9351,1.9338,1.9349,1.9328,1.9344,1.9329,1.9332,1.9329,1.933,1.933,1.9306,1.9344,1.9405,1.9411,1.9332,1.9331,1.933,0,1.9354,1.9363,1.9378,1.9379,1.9374,1.9382,1.938,1.9377,1.938,1.9382,1.9384,1.9388,1.9389,1.9392,1.938,1.9366,1.9399,1.9376,1.9396,1.9396,1.9403,1.9402,1.9466,1.9405,1.9404,1.9404,1.9404,0,1.9393,1.9408,1.9396,1.9405,1.9422,1.9409,1.9426,1.9422,1.9421,1.943,1.9413,1.9421,1.9405,1.9413,1.9403,1.942,1.942,1.9417,1.9414,1.9418,1.9419,1.942,1.9417,1.9406,1.9406,1.9405,1.9405,0,1.9437,1.9429,1.9445,1.9441,1.944,1.9453,1.9449,1.9458,1.9452,1.9464,1.9466,1.9456,1.9465,1.9454,1.946,1.9454,1.9477,1.947,1.9478,1.9476,1.9497,1.9495,1.9563,1.9571,1.9504,1.9505,1.9506,0,1.9462,1.9474,1.9472,1.9478,1.9478,1.9487,1.9491,1.9479,1.9484,1.9486,1.9495,1.9502,1.9507,1.9522,1.9515,1.9521,1.9514,1.9538,1.9514,1.952,1.9516,1.9515,1.9517,1.9542,1.9543,1.9543,1.9544,0,1.9509,1.9506,1.9513,1.952,1.9526,1.953,1.9533,1.9539,1.9527,1.9534,1.9544,1.9548,1.9557,1.9565,1.9569,1.9567,1.9554,1.9552,1.9557,1.9561,1.9566,1.9565,1.9491,1.955,1.9549,1.9549,1.9548,1.9548,1.9545,1.9556,1.9557,1.9567,1.9569,1.9573,1.9582,1.9579,1.9587,1.9594,1.9587,1.96,1.96,1.9606,1.9606,1.9615,1.9605,1.9612,1.9614,1.9616,1.962,1.9565,1.9616,1.9616,1.9616,1.9615,1.9615,0,1.9592,1.9593,1.9602,1.9609,1.9617,1.9606,1.961,1.9617,1.9629,1.9631,1.9638,1.9651,1.9659,1.9655,1.9663,1.9672,1.9666,1.9674,1.9673,1.9674,1.9628,1.9623,1.9679,1.9679,1.9679,1.9679,1.9679,1.9679,1.9617,1.9636,1.9633,1.9653,1.9654,1.9667,1.9671,1.9675,1.9678,1.9693,1.9701,1.9699,1.9699,1.9708,1.9716,1.9714,1.9718,1.9729,1.9726,1.9683,1.9676,1.967,1.9666,1.973,1.973,1.9771,1.9771,1.9771]}]]